User: anonymous   Login
Location: Unspecified
(0.0000°N, 0.0000°E)
Time: 14:45:06
(UTC+00:00)
Language:

Oscar 10/S400 - Orbit

View from above orbital plane
View from above orbital plane
View from above satellite
View from above satellite

Ground track
Ground track

The orbit data is extracted from the following two-line orbital elements,

1 14129U 83058B   21135.47958762  .00000215  00000-0  00000-0 0  9999
2 14129  26.0231 160.0793 6022678 334.8353   5.1244  2.05868052257218
Epoch (UTC): 15 May 2021 11:30:36
Eccentricity: 0.6022678
inclination: 26.0231°
perigee height: 4003 km
apogee height: 35444 km
right ascension of ascending node: 160.0793°
argument of perigee: 334.8353°
revolutions per day: 2.05868052
mean anomaly at epoch: 5.1244°
orbit number at epoch: 25721

The dashed part of the orbit path shows where the satellite is in the earth's shadow,  

DLR